TimeCST,TemperatureF,Dew PointF,Humidity,Sea Level PressureIn,VisibilityMPH,Wind Direction,Wind SpeedMPH,Gust SpeedMPH,PrecipitationIn,Events,Conditions,WindDirDegrees,DateUTC
12:53 AM,28.9,18.0,64,30.40,10.0,SW,10.4,-,N/A,,Clear,220,2012-11-13 06:53:00
1:53 AM,26.1,16.0,66,30.39,10.0,SW,11.5,-,N/A,,Clear,220,2012-11-13 07:53:00
2:53 AM,24.8,15.8,69,30.34,10.0,SSW,9.2,-,N/A,,Clear,210,2012-11-13 08:53:00
4:53 AM,23.0,15.1,72,30.36,10.0,SSW,9.2,-,N/A,,Clear,210,2012-11-13 10:53:00
5:53 AM,21.2,15.8,80,30.30,10.0,SSW,6.9,-,N/A,,Clear,200,2012-11-13 11:53:00
6:53 AM,21.9,18.0,85,30.38,10.0,SSW,9.2,-,N/A,,Clear,200,2012-11-13 12:53:00
7:53 AM,26.1,19.9,78,30.37,10.0,South,8.1,-,N/A,,Clear,180,2012-11-13 13:53:00
8:53 AM,34.0,21.9,61,30.37,10.0,South,9.2,-,N/A,,Clear,190,2012-11-13 14:53:00
9:53 AM,42.1,24.1,49,30.37,10.0,South,9.2,-,N/A,,Clear,190,2012-11-13 15:53:00
10:53 AM,50.0,19.0,29,30.35,10.0,SW,16.1,-,N/A,,Clear,220,2012-11-13 16:53:00
11:53 AM,52.0,21.9,31,30.32,10.0,South,15.0,-,N/A,,Clear,190,2012-11-13 17:53:00
12:53 PM,55.9,21.9,27,30.28,10.0,South,16.1,23.0,N/A,,Clear,190,2012-11-13 18:53:00
1:53 PM,55.0,21.9,28,30.25,10.0,South,16.1,24.2,N/A,,Clear,180,2012-11-13 19:53:00
2:53 PM,57.0,21.0,25,30.24,10.0,South,18.4,27.6,N/A,,Clear,170,2012-11-13 20:53:00
3:53 PM,53.1,21.9,30,30.25,10.0,South,17.3,-,N/A,,Clear,180,2012-11-13 21:53:00
4:53 PM,51.1,25.0,36,30.26,10.0,SSE,12.7,-,N/A,,Clear,160,2012-11-13 22:53:00
5:53 PM,46.0,26.1,46,30.27,10.0,SE,12.7,-,N/A,,Clear,140,2012-11-13 23:53:00
6:53 PM,44.1,27.0,51,30.29,10.0,SE,11.5,-,N/A,,Clear,130,2012-11-14 00:53:00
7:53 PM,44.1,26.1,49,30.30,10.0,SSE,13.8,-,N/A,,Clear,150,2012-11-14 01:53:00
8:53 PM,42.1,25.0,51,30.30,10.0,SSE,13.8,-,N/A,,Clear,160,2012-11-14 02:53:00
9:53 PM,39.9,25.0,55,30.31,10.0,South,12.7,-,N/A,,Clear,170,2012-11-14 03:53:00
10:53 PM,39.0,25.0,57,30.30,10.0,South,11.5,-,N/A,,Clear,170,2012-11-14 04:53:00
11:53 PM,37.9,24.1,57,30.30,10.0,South,10.4,-,N/A,,Clear,170,2012-11-14 05:53:00